STARLINK-11549, 62832

Orbit data source: Space-Track

STARLINK-11549, 62832 is a payload satellite owned by SpaceX/Seattle (US) in LEO that was launched on Mon, 27 Jan 2025 UTC via an FALCON 9 launch vehicle from the Air Force Eastern Test Range (AFETR). Payload-class satellites include a variety of spacecraft equipped with specific instruments for various scientific and technological missions. These include communications satellites like Starlink; space stations such as the ISS; scientific satellites like the Hubble; Earth observation satellites from companies like Planet Labs, Umbra, and HawkEye 360; GPS; miniature CubeSats for education and research; and military/defense satellites.

Loading next visibility...
Identifier
62832, 2025-019D
Orbit
LEO
Country
Flag of USUS
Related business
Manufacturer
SpaceX/Seattle
Mission
Operational Commercial Communications
Bus & Motor
STARLINK V2MD, Unknown motor
Mass
960 kg wet, ~910 kg dry
Launch date (UTC)
2025-01-27 (1 year ago)
Launch vehicle
FALCON 9
Launch site
Air Force Eastern Test Range (AFETR)
Object type
Payload
Rocket body
Debris
Shape & HBR
Box + 2 Pan, 18.1 m
Radar Cross Section
36.964 m², Large (>1 m²)

Expand to show TLE details & history
Last TLE update: 9 hours ago

TLE from 9 hours ago
0 STARLINK-11549
1 62832U 25019D   26126.90320035  .00142294  00000-0  10920-2 0  9993
2 62832  42.9998 315.3223 0001779 259.9122 100.1545 15.70874150 73034
Epoch: 2026-05-06T21:40Z
TLE epoch observation values (Epoch: 2026-05-06T21:40:36.510Z)
Latitude
-0°
Longitude
125.41315°
Altitude
356.38 km
Speed
7.697 km/s
True Right ascension
21h 01m 17s
True Declination
0° 00' 00"
Sunlit
Object was in daylight at epoch
Visualization orbit readout
Latitude
Unknown
Longitude
Unknown
Altitude
Unknown
Speed
Unknown
Apparent Right ascension
Unknown
Apparent Declination
Unknown
Sunlit
N/A
Visualization observer readout
Local Sidereal Time
14:41:59
Azimuth
Unknown
Elevation
Unknown
Doppler factor
Unknown
Orbital elements
Apogee altitude
359.578 km
Perigee altitude
357.181 km
Semi-major axis
6,736.516 km
Eccentricity
0.00018
Inclination
42.9998°
RAAN
315.3223°
Arg. of periapsis
259.9122°
True anomaly
100.17457°
Mean anomaly
100.1545°
Eccentric anomaly
100.16453°
Mean motion
3.92546 °/min
Orbital period
91.71 mins
BSTAR
0.001092
Loading maneuver chart data...
Computing Atmospheric mass density...
Loading historical data...
Loading historical data...
Loading historical data...
Loading historical data...
Loading historical data...
Loading historical data...
Loading historical data...

Documentation

Showing up to 5 results
|